Location: Central Coast
(33.3208°S, 151.2336°E)
Time: 13:18:38
(UTC+11:00)

N. Korean satellite - Visible Passes

Search period start: 11 December 2017 00:00
Search period end: 21 December 2017 00:00
Orbit: 461 x 513 km, 97.2° (Epoch: 09 December)

Date Brightness Start Highest point End Pass type
(mag) Time Alt. Az. Time Alt. Az. Time Alt. Az.
11 Dec 10.0 20:39:47 10° SW 20:41:26 13° WSW 20:43:05 10° W visible
15 Dec 10.0 20:38:56 10° SW 20:40:41 13° WSW 20:42:26 10° W visible
19 Dec 10.0 20:38:02 10° SW 20:39:54 14° WSW 20:41:46 10° W visible
